{"data":{"norad_id":67797,"intl_designator":"2026-032A","name":"STARLINK-36800","alt_names":[],"object_type":"PAYLOAD","status":"ACTIVE","operator":null,"country":"US","launch_date":"2026-02-15","launch_site_code":"AFWTR","launch_vehicle":null,"mission":null,"orbit_class":"UNKNOWN","rcs_meters":null,"size_class":null,"mass_kg":null,"dimensions":null,"purposes":["comms"],"wikipedia_slug":null,"has_3d_model":false,"image_url":null,"decayed_at":null,"tle_current":{"epoch":"2026-09-19T22:29:20.541984Z","epoch_age_seconds":115093,"freshness":"FRESH","line1":"1 67797U 26032A   26262.93704331  .00022053  00000+0  68275-3 0  9999","line2":"2 67797  97.2858  89.4224 0002385  73.1240 287.0264 15.33475164 34736","mean_motion":15.33475164,"eccentricity":0.0002385,"inclination_deg":97.2858,"raan_deg":89.4224,"arg_perigee_deg":73.124,"mean_anomaly_deg":287.0264,"bstar":0.00068275,"rev_number":3473,"period_min":93.904357488505,"perigee_km":463.8212327901,"apogee_km":467.08562542478,"semimajor_km":6843.5904291074,"source":"CELESTRAK","updated_at":"2026-09-20T09:00:43.661534Z"}}}